Regional Weather Roundup
Issued by NWS Cleveland, OH

Home | Current Version | Previous Version | Text Only | Print | Product List | Glossary Off
Versions: 1 2 3 4 5 6 7 8 9 10 11 12 13 14 15 16 17 18 19 20 21 22 23 24 25 26 27 28 29 30 31 32 33 34 35 36 37 38 39 40 41 42 43 44 45 46 47 48 49 50

000
ASUS41 KCLE 110010
RWRCLE
OHIO REGIONAL WEATHER ROUNDUP
NATIONAL WEATHER SERVICE CLEVELAND, OH
800 PM EDT THU JUL 10 2014

NOTE: "FAIR" INDICATES FEW OR NO CLOUDS BELOW 12,000 FEET WITH NO
SIGNIFICANT WEATHER AND/OR OBSTRUCTIONS TO VISIBILITY.

OHZ001>008-015>018-024>027-034-035-043-044-110100-
   NORTHWEST OHIO

CITY           SKY/WX    TMP DP  RH WIND       PRES   REMARKS
DEFIANCE       SUNNY     76  51  41 NW3       30.14R
FINDLAY        SUNNY     76  53  44 W5        30.12R
TOLEDO EXPRESS SUNNY     75  57  53 NE7       30.13R
TOLEDO EXEC    SUNNY     74  56  53 E8        30.14R
LIMA           SUNNY     76  52  43 NW5       30.14R
$$

OHZ009>014-019>023-028>033-038-089-110100-
   NORTHEAST OHIO

CITY           SKY/WX    TMP DP  RH WIND       PRES   REMARKS
CLE-HOPKINS    PTCLDY    74  55  51 NE7       30.15R
CLE-LAKEFRONT  CLEAR     72  59  63 NE9       30.11S
CUY CO. ARPT   PTCLDY    77  59  53 NE9       30.14R
LORAIN-ELYRIA  CLEAR     76  57  51 NE8       30.14R
ASHTABULA      CLEAR     70  53  54 NE5       30.15R
AKRON-CANTON   PTCLDY    74  58  57 NE13      30.13R
WOOSTER        CLEAR     74  59  59 N8        30.14R
MANSFIELD      CLEAR     73  59  61 N8        30.14R
YOUNGSTOWN     PTCLDY    72  59  63 N10       30.13R
$$

OHZ042-051>053-060>062-070>072-077>081-110100-
  SOUTHWEST OHIO

CITY           SKY/WX    TMP DP  RH WIND       PRES   REMARKS
CINC-COVINGTON MOSUNNY   79  54  41 N10       30.10R
CINC-LUNKEN    PTSUNNY   78  58  49 NE8       30.10R
HAMILTON       SUNNY     78  56  46 N6        30.11R
DAYTON         MOSUNNY   76  57  51 N7        30.14R
WRIGHT-PAT AFB SUNNY     77  56  48 N9        30.12R
DAYTON GENERAL SUNNY     77  55  46 NW9       30.11R
WILMINGTON     SUNNY     76  57  51 N8        30.11R
$$

OHZ036-037-039>041-045>050-054>059-063>069-073>076-082>088-110100-
  CENTRAL AND SOUTHEAST OHIO

CITY           SKY/WX    TMP DP  RH WIND       PRES   REMARKS
COLUMBUS       PTCLDY    78  54  43 N10       30.10R
OSU AIRPORT    SUNNY     76  55  48 N8        30.11R
BOLTON FIELD   PTCLDY    77  56  49 NW7       30.11R
RICKENBACK AFB CLEAR     79  50  36 N7        30.09R
NEWARK         CLEAR     78  56  46 N3        30.11R
MARION         SUNNY     77  54  44 N6        30.13R
LANCASTER      PTCLDY    77  59  53 N5        30.11R
ZANESVILLE     CLEAR     77  59  53 N6        30.10R
NEW PHILLY     MOCLDY    77  59  53 N7        30.11R
$$



USA.gov is the U.S. government's official web portal to all federal, state and local government web resources and services.